Погода в Белоканах

Азербайджан     41°42′23″N   46°22′44″E
темп.,
°C
ветер,
м/с
пор.,
м/с
влажн.,
%
обл.,
%
осадки,
мм/ч
давл.,
гПа
погр.,
м
23 апреля, пт
пт2301:00+12зсз129464 3.2 101875
04:00+11зсз0196100 4.9 101990
07:00+10сз119596 0.9 102084
10:00+12юз219047 1.4 1021324
13:00+16юз22671 1.1 1020886
16:00+17юз34400 1.4 10201610
19:00+13в1159100 0.0 102112
22:00+11св33631 0.0 102437
24 апреля, сб
сб2401:00+9ссв128459 0.0 1025167
04:00+8с118656 0.2 102496
07:00+8зсз118457 0.0 1024107
10:00+12юз327591 0.0 1022628
13:00+16юз42580 0.0 1019887
16:00+18зюз32513 0.0 1016770
19:00+14зсз11710 0.0 101712
22:00+12св22641 0.0 101914
25 апреля, вс
вс2501:00+11всв22713 0.0 102016
04:00+10св11755 0.0 102012
07:00+10всв11733 0.0 102117
10:00+15ююз31655 0.0 1020594
13:00+18ююз32566 0.0 1018937
16:00+19ююз32532 0.0 1017955
19:00+15юв11745 0.0 101628
22:00+12св228027 0.0 101815
26 апреля, пн
пн2601:00+11св117610 0.0 101614
04:00+11с21755 0.0 101512
07:00+12с116720 0.0 101414
10:00+18юз21577 0.0 1012441
13:00+21ююз324725 0.1 1009655
16:00+21юз3150100 0.2 1007507
19:00+15св5675100 1.9 1009142
22:00+15ссв3263100 1.9 100833
27 апреля, вт
вт2701:00+12ссв2279100 0.6 101019
04:00+12ссв2284100 3.0 101030
07:00+13ссв1185100 1.9 101038
10:00+14ююз2287100 4.1 1013375
13:00+13ю3393100 1.4 1014407
16:00+13ююз2394100 4.4 1014282
19:00+11ююз1298100 7.3 1016149
22:00+10ю2399100 11.3 1018210